STARLINK-1177 (45078 NORAD) Tracking and Keplerian Element Data

This shows tracking and keplerian element data for the satellite.

Feedback or suggestion? Click here.




ElementValue
Catalog45078
NameSTARLINK-1177
Epoch Orbit292
Epoch Day47.91667824
Epoch Year2020
RAAN143.1906
Inclination52.9976
Eccentricity0.0006263
Argument of Perigee273.5074
Mean Anonmoly202.7566
Mean Motion15.85776235
Decay Rate0.00595915
L11 45078U 20006AL 20047.91667824 .00595915 00000-0 22378-2 0 9996
L22 45078 52.9976 143.1906 0006263 273.5074 202.7566 15.85776235 2923

Live tracking and technical data element details for STARLINK-1177 (NORAD 45078). STARLINK-1177 can be tracked NOW for your location showing map with azimuth and elevation plus other details from your city location.

Track the satellite on the map from your city or location and see movement details for azimuth, elevation, latitude, longitude, range, height, and movement on the map or in text.







IsCatalogInMostPopularTable: catalog: 45078, numindb: -1

Insert: records affected: 1


GetName: 45078 STARLINK-1177

Hit Count: inserted at: Tue, 18 Feb 2020 00:20:00 GMT